Columbus AFB, MS

12:38 PM CDT on May 23, 2018 (GMT -0500)
Columbus Air Force Base

Weather History for KCBM - October, 2013

Change the Weather History Date:

Wednesday, October 16, 2013

  Actual Average Record
Temperature  
Mean Temperature 66 °F -  
Max Temperature 69 °F 74 °F 87 °F (1998)
Min Temperature 63 °F 50 °F 41 °F (2010)
Cooling Degree Days 1    
Growing Degree Days 16 (Base 50)    
Moisture  
Dew Point 67 °F    
Average Humidity 97    
Maximum Humidity 100    
Minimum Humidity 81    
Precipitation  
Precipitation 0.31 in - - ()
Sea Level Pressure  
Sea Level Pressure 29.96 in    
Wind  
Wind Speed 7 mph (SW)    
Max Wind Speed 10 mph    
Max Gust Speed -    
Visibility 8 miles    
Events Rain    
Averages and records for this station are not official NWS values.
T = Trace of Precipitation, MM = Missing Value Source: NWS Daily Summary

Daily Weather History Graph

Daily Weather History Graph

Search for Another Location

Airport or City:

Astronomy

Oct. 16, 2013 Rise Set
Actual Time 6:59 AM CDT 6:18 PM CDT
Civil Twilight 6:34 AM CDT 6:43 PM CDT
Nautical Twilight 6:05 AM CDT 7:12 PM CDT
Astronomical Twilight 5:36 AM CDT 7:41 PM CDT
Moon 4:53 PM CDT (10/16) 4:33 AM CDT (10/16)
Length of Visible Light 12h 09m
Length of Day
11h 18m
Waxing Gibbous, 94% of the Moon is Illuminated
Oct 16
Waxing Gibbous
Oct 18
Full
Oct 26
Last Quarter
Nov 3
New
Nov 9
First Quarter

Hourly Weather History & Observations

Time (CDT) Temp. Dew Point Humidity Pressure Visibility Wind Dir Wind Speed Gust Speed Precip Events Conditions
12:58 AM 68.2 °F 63.0 °F 83% 29.98 in 10.0 mi SSE 6.9 mph - N/A   Scattered Clouds
1:58 AM 68.4 °F 62.2 °F 81% 29.99 in 10.0 mi South 6.9 mph - N/A   Partly Cloudy
2:58 AM 65.5 °F 61.9 °F 88% 29.97 in 10.0 mi SSE 5.8 mph - N/A   Partly Cloudy
3:58 AM 66.2 °F 62.6 °F 88% 29.98 in 10.0 mi SSE 5.8 mph - N/A   Scattered Clouds
4:58 AM 66.6 °F 62.6 °F 87% 29.98 in 10.0 mi SSE 6.9 mph - N/A   Scattered Clouds
5:58 AM 66.2 °F 62.8 °F 89% 29.98 in 10.0 mi SSE 6.9 mph - N/A   Partly Cloudy
6:58 AM 66.2 °F 63.0 °F 89% 29.99 in 10.0 mi SSE 9.2 mph - N/A   Mostly Cloudy
7:33 AM 66.2 °F 62.6 °F 88% 29.98 in 10.0 mi SSE 9.2 mph - N/A   Mostly Cloudy
7:38 AM 66.2 °F 62.6 °F 88% 29.98 in 10.0 mi SSE 9.2 mph - N/A   Scattered Clouds
7:43 AM 66.2 °F 62.6 °F 88% 29.98 in 10.0 mi SSE 10.4 mph - N/A   Mostly Cloudy
7:58 AM 66.7 °F 63.0 °F 88% 29.99 in 10.0 mi SSE 10.4 mph - N/A   Scattered Clouds
8:03 AM 66.2 °F 62.6 °F 88% 29.99 in 10.0 mi South 9.2 mph - N/A   Scattered Clouds
8:15 AM 66.2 °F 62.6 °F 88% 29.99 in 10.0 mi SSE 9.2 mph - N/A   Overcast
8:18 AM 66.2 °F 62.6 °F 88% 29.99 in 10.0 mi South 6.9 mph - N/A   Partly Cloudy
8:20 AM 66.2 °F 62.6 °F 88% 29.99 in 10.0 mi South 8.1 mph - N/A   Overcast
8:31 AM 66.2 °F 62.6 °F 88% 29.99 in 10.0 mi South 8.1 mph - N/A Rain Light Rain
8:44 AM 66.2 °F 62.6 °F 88% 30.00 in 10.0 mi South 8.1 mph - N/A Rain Light Rain
8:55 AM 66.2 °F 64.4 °F 94% 30.00 in 3.0 mi SSE 8.1 mph - N/A Rain Light Rain
9:49 AM 66.2 °F 64.4 °F 94% 29.99 in 1.5 mi South 8.1 mph - N/A Rain Overcast
9:58 AM 66.2 °F 65.3 °F 97% 30.00 in 1.5 mi South 8.1 mph - 0.02 in Rain Light Rain
10:36 AM 66.2 °F 66.2 °F 100% 30.01 in 1.0 mi South 6.9 mph - N/A Rain Light Rain
10:55 AM 66.4 °F 66.4 °F 100% 30.00 in 1.1 mi North - - 0.10 in Rain Light Rain
11:22 AM 66.2 °F 66.2 °F 100% 29.99 in 1.0 mi South 6.9 mph - N/A Rain Light Rain
11:55 AM 68.0 °F 68.0 °F 100% 30.00 in 5.0 mi South 6.9 mph - N/A Rain Light Rain
12:25 PM 68.0 °F 68.0 °F 100% 29.99 in 5.0 mi South 6.9 mph - N/A Rain Light Rain
12:29 PM 68.0 °F 68.0 °F 100% 29.99 in 1.5 mi South 6.9 mph - N/A Rain Overcast
12:56 PM 68.5 °F 68.5 °F 100% 30.00 in 2.0 mi South 6.9 mph - 0.06 in Rain Light Rain
1:56 PM 69.1 °F 69.1 °F 100% 30.00 in 7.0 mi South 6.9 mph - 0.04 in Rain Light Rain
2:06 PM 69.8 °F 69.8 °F 100% 29.94 in 10.0 mi South 4.6 mph - N/A   Mostly Cloudy
2:11 PM 69.8 °F 69.8 °F 100% 29.94 in 10.0 mi South 4.6 mph - N/A   Overcast
2:12 PM 69.8 °F 69.8 °F 100% 29.95 in 10.0 mi South 4.6 mph - N/A   Overcast
2:23 PM 69.8 °F 69.8 °F 100% 29.94 in 9.0 mi South 5.8 mph - N/A   Light Drizzle
2:28 PM 69.8 °F 69.8 °F 100% 29.94 in 5.0 mi Variable 5.8 mph - N/A Rain Light Rain
2:33 PM 69.8 °F 69.8 °F 100% 29.94 in 4.0 mi SSW 4.6 mph - N/A Rain Light Rain
2:38 PM 69.8 °F 69.8 °F 100% 29.94 in 2.0 mi SSW 4.6 mph - N/A Rain Light Rain
2:48 PM 69.8 °F 69.8 °F 100% 29.94 in 3.0 mi SSW 5.8 mph - N/A Rain Light Rain
2:53 PM 69.8 °F 69.8 °F 100% 29.94 in 4.0 mi SSW 5.8 mph - N/A Rain Light Rain
2:58 PM 69.8 °F 69.8 °F 100% 29.95 in 4.0 mi South 6.9 mph - 0.03 in Rain Light Rain
3:08 PM 69.8 °F 69.8 °F 100% 29.94 in 5.0 mi South 5.8 mph - N/A Rain Light Rain
3:13 PM 69.8 °F 69.8 °F 100% 29.94 in 4.0 mi South 5.8 mph - N/A Rain Light Rain
3:18 PM 69.8 °F 69.8 °F 100% 29.93 in 4.0 mi South 5.8 mph - N/A Rain Light Rain
3:28 PM 69.8 °F 69.8 °F 100% 29.93 in 7.0 mi South 3.5 mph - N/A Rain Light Rain
3:33 PM 69.8 °F 69.8 °F 100% 29.93 in 9.0 mi South 4.6 mph - N/A   Mostly Cloudy
3:37 PM 69.8 °F 69.8 °F 100% 29.93 in 9.0 mi South 3.5 mph - N/A Rain Light Rain
3:58 PM 69.6 °F 69.4 °F 99% 29.94 in 6.0 mi SSW 5.8 mph - 0.03 in Rain Light Rain
4:01 PM 69.8 °F 69.8 °F 100% 29.93 in 6.0 mi Variable 4.6 mph - N/A Rain Light Rain
4:08 PM 69.8 °F 69.8 °F 100% 29.93 in 10.0 mi WSW 4.6 mph - N/A   Overcast
4:13 PM 69.8 °F 69.8 °F 100% 29.93 in 10.0 mi WSW 4.6 mph - N/A   Mostly Cloudy
4:18 PM 69.8 °F 69.8 °F 100% 29.93 in 10.0 mi WSW 3.5 mph - N/A   Mostly Cloudy
4:23 PM 69.8 °F 69.8 °F 100% 29.94 in 10.0 mi WSW 4.6 mph - N/A Rain Light Rain
4:38 PM 69.8 °F 69.8 °F 100% 29.93 in 10.0 mi SSW 5.8 mph - N/A Rain Light Rain
4:39 PM 69.8 °F 69.8 °F 100% 29.93 in 10.0 mi SSW 5.8 mph - N/A Rain Light Rain
4:42 PM 69.8 °F 69.8 °F 100% 29.93 in 10.0 mi SW 5.8 mph - N/A   Mostly Cloudy
4:47 PM 69.8 °F 68.0 °F 94% 29.93 in 10.0 mi SSW 5.8 mph - N/A   Mostly Cloudy
4:52 PM 69.8 °F 68.0 °F 94% 29.93 in 10.0 mi SSW 5.8 mph - N/A Rain Light Rain
4:58 PM 69.1 °F 68.5 °F 98% 29.94 in 10.0 mi SSW 4.6 mph - 0.02 in Rain Light Rain
5:02 PM 69.8 °F 68.0 °F 94% 29.93 in 10.0 mi SW 4.6 mph - N/A Rain Light Rain
5:07 PM 69.8 °F 68.0 °F 94% 29.93 in 8.0 mi SSW 3.5 mph - N/A Rain Light Rain
5:28 PM 69.8 °F 68.0 °F 94% 29.93 in 10.0 mi SW 5.8 mph - N/A   Overcast
5:38 PM 69.8 °F 69.8 °F 100% 29.93 in 10.0 mi SW 6.9 mph - N/A   Overcast
5:58 PM 68.9 °F 68.9 °F 100% 29.95 in 10.0 mi SW 4.6 mph - 0.01 in   Overcast
6:13 PM 69.8 °F 69.8 °F 100% 29.94 in 10.0 mi SW 4.6 mph - N/A   Overcast
6:23 PM 68.0 °F 68.0 °F 100% 29.94 in 10.0 mi WSW 4.6 mph - N/A   Overcast
6:28 PM 68.0 °F 68.0 °F 100% 29.94 in 10.0 mi WSW 5.8 mph - N/A   Overcast
6:33 PM 68.0 °F 68.0 °F 100% 29.94 in 10.0 mi WNW 3.5 mph - N/A   Light Drizzle
6:58 PM 68.4 °F 68.4 °F 100% 29.95 in 10.0 mi NW 5.8 mph - 0.00 in   Light Drizzle
7:02 PM 68.0 °F 68.0 °F 100% 29.94 in 10.0 mi WNW 4.6 mph - N/A   Overcast
7:17 PM 68.0 °F 68.0 °F 100% 29.95 in 10.0 mi NNW 5.8 mph - N/A   Overcast
7:27 PM 68.0 °F 68.0 °F 100% 29.95 in 10.0 mi NNW 5.8 mph - N/A   Overcast
7:37 PM 68.0 °F 68.0 °F 100% 29.94 in 10.0 mi NNW 6.9 mph - N/A   Overcast
7:42 PM 68.0 °F 68.0 °F 100% 29.95 in 10.0 mi NNW 5.8 mph - N/A   Overcast
7:52 PM 68.0 °F 68.0 °F 100% 29.96 in 10.0 mi NW 5.8 mph - N/A   Light Drizzle
7:58 PM 67.1 °F 67.1 °F 100% 29.97 in 10.0 mi NW 5.8 mph - 0.00 in   Light Drizzle
7:59 PM 68.0 °F 68.0 °F 100% 29.96 in 10.0 mi NW 5.8 mph - N/A   Overcast
8:04 PM 66.2 °F 66.2 °F 100% 29.96 in 10.0 mi NW 5.8 mph - N/A   Overcast
8:14 PM 66.2 °F 66.2 °F 100% 29.96 in 10.0 mi WNW 8.1 mph - N/A   Overcast
8:58 PM 64.9 °F 64.9 °F 100% 29.97 in 10.0 mi NNW 6.9 mph - 0.00 in   Overcast
9:03 PM 64.4 °F 64.4 °F 100% 29.97 in 10.0 mi NW 6.9 mph - N/A   Overcast
9:58 PM 64.2 °F 64.2 °F 100% 29.98 in 10.0 mi NW 6.9 mph - N/A   Overcast
10:18 PM 64.4 °F 64.4 °F 100% 29.97 in 8.0 mi NW 5.8 mph - N/A   Overcast
10:38 PM 64.4 °F 64.4 °F 100% 29.97 in 3.0 mi NW 5.8 mph - N/A   Overcast
10:43 PM 64.4 °F 64.4 °F 100% 29.97 in 1.8 mi NW 6.9 mph - N/A   Overcast
10:48 PM 64.4 °F 64.4 °F 100% 29.97 in 1.5 mi NW 4.6 mph - N/A   Overcast
10:53 PM 64.4 °F 64.4 °F 100% 29.97 in 1.2 mi NW 5.8 mph - N/A   Overcast
10:58 PM 63.9 °F 63.9 °F 100% 29.97 in 1.2 mi NW 4.6 mph - N/A   Overcast
11:03 PM 64.4 °F 64.4 °F 100% 29.97 in 1.0 mi NW 5.8 mph - N/A   Mist
11:08 PM 64.4 °F 64.4 °F 100% 29.96 in 1.2 mi NNW 6.9 mph - N/A   Overcast
11:13 PM 64.4 °F 64.4 °F 100% 29.96 in 2.5 mi NNW 5.8 mph - N/A   Overcast
11:18 PM 64.4 °F 64.4 °F 100% 29.96 in 5.0 mi NNW 5.8 mph - N/A   Overcast
11:38 PM 64.4 °F 64.4 °F 100% 29.95 in 10.0 mi NNW 4.6 mph - N/A   Overcast
11:58 PM 63.3 °F 63.3 °F 100% 29.95 in 10.0 mi NW 6.9 mph - N/A   Overcast